Terug naar catalogus

METEOR 2-5 DEB

ActiefPO
NORAD 38275·DEBRIS·🇷🇺 Russia

Gelanceerd Oct 31, 1979 vanaf Plesetsk Cosmodrome

Loading…

Volgende Passages (komende 24 uur)

TLE

VersSource: Space-Track

Epoch: Sep 14, 2026, 10:43 UTC

1 38275U 79095BV  26257.44663074  .00042009  00000-0  27858-2 0  9998
2 38275  81.1027 300.0487 0007584 274.5704  85.4653 15.07051770688456

Volg METEOR 2-5 DEB in realtime met AllMySat

Download on the App Store